Location: Hurstbourne Priors
(51.2000°N, 1.3667°W)
Time: 08:46:46
(UTC+00:00)

Cosmos 1953 - Pass Details

Date: 09 April 2020
Orbit: 540 x 557 km, 82.5° (Epoch: 24 May)

Event Time Altitude Azimuth Distance (km) Brightness Sun altitude
Rises 19:33:35 0° 203° (SSW) 2,694 5.9 -7.0°
Reaches altitude 10° 19:35:47 10° 208° (SSW) 1,809 5.0 -7.3°
Maximum altitude 19:39:39 49° 285° (WNW) 709 3.4 -7.8°
Drops below altitude 10° 19:43:35 10° 1° (N) 1,833 5.3 -8.4°
Sets 19:45:49 0° 7° (N) 2,735 6.1 -8.7°
